Flag for Germany Weather past 2 weeks in Gummersbach, North Rhine-Westphalia, Germany

Now
41 °F

Passing clouds.


Feels Like: 35 °F
Forecast: 42 / 49 °F
Wind: 9 mph from Southwest

Location: Koeln / Bonn

Current Time: Dec 21, 2014 at 7:31:54 AM

Latest Report: Dec 21, 2014 at 6:50 AM


Visibility: N/A

Pressure: 30.42 "Hg

Humidity: 87%

Dew point: 37 °F

Location of GummersbachLocation

Historic Weather in Gummersbach — Graph

°F

Gummersbach temperature yesterday

Maximum temperature yesterday: 45 °F (at 11:50 AM)
Minimum temperature yesterday: 37 °F (at 6:50 AM)
Average temperature yesterday: 42 °F

Past Weeks' High & Low Weather Summary

 TemperatureHumidityPressure
High55 °F (Dec 18, 5:20 PM)100% (Dec 7, 12:20 AM)30.42 "Hg (Dec 7, 12:20 AM)
Low30 °F (Dec 14, 10:50 PM)66% (Dec 7, 12:20 PM)29.45 "Hg (Dec 12, 5:20 PM)
Average41 °F87%29.99 "Hg
* Reported Dec 6 6:20 AM — Dec 21 6:20 AM, Gummersbach, Weather by CustomWeather, © 2014

Note: Actual official high and low records may vary slightly from our data, if they occured in-between our weather recording intervals... More about our weather records

Advertising

Gummersbach weather history for previous 24 hours

 ConditionsComfort  
Time TempWeatherWind HumidityBarometerVisibility
6:20 AM
Dec 21
41 °FPassing clouds.8 mph87%30.42 "HgN/A
5:50 AM41 °FPassing clouds.9 mph87%30.42 "HgN/A
5:20 AM41 °FPassing clouds.9 mph87%30.42 "HgN/A
4:50 AM41 °FPassing clouds.10 mph87%30.39 "HgN/A
4:20 AM43 °FPartly cloudy.13 mph87%30.42 "HgN/A
3:50 AM43 °FSprinkles. Partly cloudy.12 mph87%30.39 "HgN/A
3:20 AM41 °FPassing clouds.12 mph87%30.39 "HgN/A
2:50 AM41 °FSprinkles. Passing clouds.10 mph87%30.39 "HgN/A
2:20 AM41 °FClear.10 mph87%30.39 "Hg10 mi
1:50 AM41 °FClear.12 mph87%30.36 "Hg10 mi
1:20 AM39 °FPassing clouds.9 mph93%30.36 "HgN/A
12:50 AM41 °FPassing clouds.12 mph87%30.36 "HgN/A
12:20 AM41 °FPassing clouds.12 mph87%30.33 "HgN/A
11:50 PM
Dec 20
41 °FPassing clouds.12 mph87%30.33 "HgN/A
11:20 PM41 °FPassing clouds.9 mph87%30.33 "HgN/A
10:20 PM43 °FSprinkles. Passing clouds.16 mph81%30.30 "HgN/A
9:50 PM43 °FPassing clouds.16 mph81%30.27 "HgN/A
9:20 PM43 °FPassing clouds.14 mph81%30.27 "HgN/A
8:50 PM43 °FPassing clouds.15 mph81%30.24 "HgN/A
8:20 PM43 °FScattered showers. Passing clouds.14 mph81%30.24 "HgN/A
7:50 PM41 °FPassing clouds.14 mph87%30.21 "HgN/A
7:20 PM43 °FSprinkles. Passing clouds.20 mph81%30.21 "HgN/A
6:50 PM45 °FSprinkles. Partly cloudy.20 mph76%30.18 "HgN/A
6:20 PM45 °FSprinkles. Passing clouds.20 mph76%30.15 "HgN/A
5:50 PM45 °FPassing clouds.18 mph76%30.15 "HgN/A
5:20 PM43 °FPartly cloudy.16 mph87%30.15 "HgN/A
4:50 PM45 °FSprinkles. Partly cloudy.18 mph81%30.12 "HgN/A
4:20 PM45 °FSprinkles. Partly sunny.21 mph76%30.12 "HgN/A
3:50 PM45 °FScattered showers. Partly sunny.23 mph76%30.12 "HgN/A
3:20 PM45 °FScattered showers. Partly sunny.16 mph76%30.12 "HgN/A
2:50 PM45 °FSprinkles. Broken clouds.22 mph76%30.12 "HgN/A
2:20 PM45 °FSprinkles. Partly sunny.23 mph76%30.12 "HgN/A
1:20 PM45 °FPartly sunny.25 mph71%30.12 "HgN/A
12:50 PM45 °FPartly sunny.22 mph71%30.12 "HgN/A
12:20 PM45 °FPartly sunny.22 mph71%30.12 "HgN/A
11:50 AM45 °FPartly sunny.21 mph76%30.15 "HgN/A
11:20 AM43 °FPartly sunny.17 mph81%30.15 "HgN/A
10:50 AM43 °FSprinkles. Partly sunny.16 mph76%30.15 "HgN/A
10:20 AM43 °FPartly sunny.16 mph76%30.15 "HgN/A
9:50 AM43 °FPartly sunny.14 mph76%30.18 "HgN/A
9:20 AM41 °FPartly sunny.9 mph81%30.18 "HgN/A
8:50 AM39 °FPartly sunny.8 mph81%30.18 "HgN/A
8:20 AM39 °FPartly cloudy.8 mph81%30.18 "HgN/A
7:50 AM39 °FClear.10 mph81%30.18 "Hg10 mi
7:20 AM39 °FClear.9 mph81%30.18 "Hg10 mi
Weather by CustomWeather, © 2014

See weather overviewHow to use our weather pages